Regional Weather Roundup
Issued by NWS Mobile, AL

Home | Current Version | Previous Version | Text Only | Print | Product List | Glossary On
Versions: 1 2 3 4 5 6 7 8 9 10 11 12 13 14 15 16 17 18 19 20 21 22 23 24 25 26 27 28 29 30 31 32 33 34 35 36 37 38 39 40 41 42 43 44 45 46 47 48 49 50
000
ASUS44 KMOB 261010
RWRMOB
REGIONAL WEATHER ROUNDUP
NATIONAL WEATHER SERVICE MOBILE AL
400 AM CST MON JAN 26 2015

NOTE: "FAIR" INDICATES FEW OR NO CLOUDS BELOW 12,000 FEET WITH NO
      SIGNIFICANT WEATHER AND/OR OBSTRUCTIONS TO VISIBILITY.

  * THESE STATIONS ARE PART OF THE UNIVERSITY OF SOUTH ALABAMA
    MESONET AND ARE NOT UNDER NWS OR FAA QUALITY CONTROL.

ALZ061>064-261100-
COASTAL ALABAMA

CITY           SKY/WX    TMP DP  RH WIND       PRES   REMARKS
MOBILE REG APT CLEAR     47  35  63 NW10G21   29.99R
BROOKLEY FIELD CLEAR     49  36  61 NW8       30.00R
USA CAMPUS*    NOT AVBL
DOG RIVER*     NOT AVBL


CITY           SKY/WX    TMP DP  RH WIND       PRES   REMARKS
MOUNT VERNON*  NOT AVBL
SARALAND*      NOT AVBL
BAY MINETTE*   NOT AVBL
LOXLEY*        NOT AVBL
ROBERTSDALE*   NOT AVBL
FAIRHOPE*        N/A     50  39  66 NW8       29.97R
ELBERTA*         N/A     50  37  62 NW5       29.96R
FOLEY*         NOT AVBL
GRAND BAY*     NOT AVBL
DAUPHIN ISLND* NOT AVBL
BON SCOUR NWR* NOT AVBL
GULF SHORES    CLEAR     46  40  79 W6        29.97R

$$

ALZ051>060-261100-
INTERIOR SOUTHWEST AND SOUTH CENTRAL ALABAMA

CITY           SKY/WX    TMP DP  RH WIND       PRES   REMARKS
GREENVILLE     CLOUDY    48  36  63 NW9       29.88S
EVERGREEN      CLOUDY    47  37  68 CALM      29.91S
CASTLEBERRY*   NOT AVBL
ATMORE*          N/A     46  36  66 NW7       29.96R
DIXIE*           N/A     41  39  93 CALM      29.88S
ANDALUSIA/OPP  MOCLDY    47  39  74 NW7       29.89S
ANDALUSIA*       N/A     43  39  87 NW6       29.88S
FLORALA APT    CLEAR     46  38  73 CALM      29.91S
FLORALA*         N/A     46  39  76 W5        29.87S

$$

FLZ001>006-261100-
WESTERN FLORIDA PANHANDLE

CITY           SKY/WX    TMP DP  RH WIND       PRES   REMARKS
PENSACOLA      CLEAR     48  38  68 NW9       29.95R
NAS PENSACOLA  CLEAR     50  38  63 NW7       29.95R
MILTON         CLEAR     46  36  68 NW12      29.94R
WHTNG S FIELD  CLEAR     46  38  73 NW7       29.94R


CITY           SKY/WX    TMP DP  RH WIND       PRES   REMARKS
WALNUT HILL*   NOT AVBL
JAY*           NOT AVBL
CRESTVIEW      CLEAR     46  37  71 W6        29.92S
VALPARAISO     CLEAR     44  38  81 NW8       29.92R
DESTIN         CLEAR     52  39  61 VRB7      29.92R

$$

MSZ076-079-261100-
INTERIOR SOUTHEAST MISSISSIPPI

CITY           SKY/WX    TMP DP  RH WIND       PRES   REMARKS
LEAKESVILLE*   NOT AVBL
AGRICOLA*      NOT AVBL

$$

MARINE OBSERVATIONS

STATION/POSITION TIME  TEMP    WIND        PRES    WAVE
                       AIR SEA DIR/SP/G            HT/PER
                 (UTC) (F)     (DEG/KT/KT) (MB)    (FT/S)
PASCAGOULA       1000   49     310/ 10/ 14 1015.1F
PETIT BOIS ISLND 1000   53     320/ 15/ 22 1015.8R
GRAND BAY        0900   49     300/  8     1016.0R
KATRINA CUT      0900   53     310/ 21     1015.9R
CEDAR POINT      0900   50     310/  9     1015.6R
E DAUPHIN ISLAND 0900   53     300/ 16/ 18 1014.9R
MIDDLE BAY LIGHT 0900   51     300/ 13     1014.6R
USCG MOBILE BAY  1000   50 54  310/  7/ 12 1014.3R
STATE DOCKS      1000                      1014.9R
MEAHER PARK      0900   50     290/  9     1015.2R
WEEKS BAY        0900   49                   N/A
FORT MORGAN      1000   52     330/ 16/ 18 1014.3S
12 S ORANGE BCH  1000   56 62  310/ 19/ 21 1013.7R   5/ 8
PENSACOLA BAY    1000   51 57  310/  7/ 12 1014.4R
64 S DAUPHIN ISL 0935   60 70  310/ 25/ 31 1015.6R   7/ 6

$$

SELECTED LOCATIONS ACROSS THE REGION

CITY           SKY/WX    TMP DP  RH WIND       PRES   REMARKS
NEW ORLEANS    CLEAR     49  35  58 NW7       30.04S
GULFPORT       CLEAR     42  37  82 CALM      29.99F
PASCAGOULA AP  CLEAR     47  35  63 NW3       29.99F
PASCAGOULA*    NOT AVBL
HATTIESBURG    CLEAR     47  34  60 NW9       30.01S
LAUREL         CLEAR     45  30  57 NW6       30.00F
MERIDIAN       CLOUDY    46  34  62 NW12      29.98R
JACKSON        CLOUDY    47  34  60 NW7       30.02R
MONTGOMERY     CLOUDY    47  35  63 NW22G28   29.90R
TROY           MOCLDY    61  39  44 W7        29.88R
KINSTON*       NOT AVBL
GENEVA*        NOT AVBL
ASHFORD*         N/A     43  39  87 NW6       29.88S
DOTHAN         CLEAR     46  39  76 W9        29.89R
PANAMA CITY    CLEAR     49  40  71 W7        29.89R

$$



USA.gov is the U.S. government's official web portal to all federal, state and local government web resources and services.